{"data":{"norad_id":58113,"intl_designator":"2023-161S","name":"STARLINK-30353","alt_names":[],"object_type":"PAYLOAD","status":"ACTIVE","operator":null,"country":"US","launch_date":"2023-10-21","launch_site_code":"AFWTR","launch_vehicle":null,"mission":null,"orbit_class":"UNKNOWN","rcs_meters":null,"size_class":null,"mass_kg":null,"dimensions":null,"purposes":["comms"],"wikipedia_slug":null,"has_3d_model":false,"image_url":null,"decayed_at":null,"tle_current":{"epoch":"2026-05-24T11:41:35.100384Z","epoch_age_seconds":126263,"freshness":"FRESH","line1":"1 58113U 23161S   26144.48721181  .00000374  00000+0  24759-4 0  9994","line2":"2 58113  53.1593 173.6676 0001087  77.2204 282.8919 15.30196571146020","mean_motion":15.30196571,"eccentricity":0.0001087,"inclination_deg":53.1593,"raan_deg":173.6676,"arg_perigee_deg":77.2204,"mean_anomaly_deg":282.8919,"bstar":2.4759e-5,"rev_number":14602,"period_min":94.105556586037,"perigee_km":474.4803473315,"apogee_km":475.97026829722,"semimajor_km":6853.3623078144,"source":"CELESTRAK","updated_at":"2026-05-25T13:38:18.529369Z"}}}